Big Lake, AK

4:34 PM AKDT on August 25, 2016 (GMT -0800)
Wasilla

Weather History for PAWS - January, 2013

Change the Weather History Date:

Sunday, January 13, 2013

  Actual Average Record
Temperature  
Mean Temperature 40 °F -  
Max Temperature 42 °F 21 °F 48 °F (1984)
Min Temperature 37 °F 4 °F -36 °F (1972)
Degree Days  
Heating Degree Days 26    
Moisture  
Dew Point 33 °F    
Average Humidity 77    
Maximum Humidity 87    
Minimum Humidity 61    
Precipitation  
Precipitation 0.46 in - - ()
Sea Level Pressure  
Sea Level Pressure 29.78 in    
Wind  
Wind Speed 10 mph (ENE)    
Max Wind Speed 16 mph    
Max Gust Speed 23 mph    
Visibility 10 miles    
Events      
Averages and records for this station are not official NWS values.
T = Trace of Precipitation, MM = Missing Value Source: NWS Daily Summary

Daily Weather History Graph

Daily Weather History Graph

Search for Another Location

Airport or City:

Trip Planner

Search our weather history database for the weather conditions in past years. The results will help you decide how hot, cold, wet, or windy it might be!

Date:

Astronomy

Jan. 13, 2013 Rise Set
Actual Time 10:01 AM AKST 4:13 PM AKST
Civil Twilight 9:03 AM AKST 5:11 PM AKST
Nautical Twilight 8:05 AM AKST 6:09 PM AKST
Astronomical Twilight 7:12 AM AKST 7:01 PM AKST
Moon 10:06 AM AKST (1/13) 8:10 PM AKST (1/13)
Length of Visible Light 8h 07m
Length of Day
6h 12m
Waxing Crescent, 6% of the Moon is Illuminated
Jan 13
Waxing Crescent
Jan 18
First Quarter
Jan 26
Full
Feb 3
Last Quarter
Feb 9
New

Hourly Weather History & Observations

Time (AKST) Temp. Windchill Dew Point Humidity Pressure Visibility Wind Dir Wind Speed Gust Speed Precip Events Conditions
12:36 AM 39.2 °F 30.5 °F 30.2 °F 70% 29.83 in 10.0 mi ENE 16.1 mph 23.0 mph 0.01 in   Overcast
12:56 AM 39.2 °F 30.8 °F 32.0 °F 75% 29.83 in 10.0 mi ENE 15.0 mph 21.9 mph 0.01 in   Overcast
1:16 AM 39.2 °F 31.6 °F 32.0 °F 75% 29.84 in 10.0 mi ENE 12.7 mph 19.6 mph 0.02 in   Overcast
1:36 AM 39.2 °F 31.2 °F 33.8 °F 81% 29.84 in 10.0 mi ENE 13.8 mph 19.6 mph 0.03 in   Overcast
1:56 AM 39.2 °F 32.0 °F 33.8 °F 81% 29.83 in 10.0 mi East 11.5 mph 16.1 mph 0.05 in   Overcast
2:16 AM 39.2 °F 33.0 °F 33.8 °F 81% 29.84 in 10.0 mi East 9.2 mph 17.3 mph 0.01 in   Overcast
2:36 AM 39.2 °F 34.2 °F 33.8 °F 81% 29.85 in 10.0 mi East 6.9 mph - 0.03 in   Overcast
3:16 AM 39.2 °F 34.2 °F 33.8 °F 81% 29.86 in 10.0 mi ENE 6.9 mph - 0.01 in   Overcast
3:36 AM 41.0 °F - 33.8 °F 76% 29.87 in 10.0 mi Calm Calm - 0.01 in   Overcast
3:56 AM 39.2 °F 37.0 °F 33.8 °F 81% 29.87 in 10.0 mi NNE 3.5 mph - 0.02 in   Overcast
4:16 AM 39.2 °F 34.2 °F 33.8 °F 81% 29.86 in 10.0 mi NNW 6.9 mph - N/A   Overcast
4:36 AM 37.4 °F - 33.8 °F 87% 29.87 in 10.0 mi Calm Calm - N/A   Mostly Cloudy
4:56 AM 39.2 °F 37.0 °F 33.8 °F 81% 29.86 in 10.0 mi NNE 3.5 mph - N/A   Overcast
5:16 AM 39.2 °F 35.0 °F 33.8 °F 81% 29.85 in 10.0 mi NE 5.8 mph - N/A   Overcast
5:36 AM 41.0 °F 35.8 °F 32.0 °F 70% 29.84 in 10.0 mi ENE 8.1 mph - N/A   Overcast
5:56 AM 41.0 °F 35.8 °F 32.0 °F 70% 29.85 in 10.0 mi NE 8.1 mph - N/A   Overcast
6:16 AM 41.0 °F 35.8 °F 33.8 °F 76% 29.85 in 10.0 mi ENE 8.1 mph - N/A   Overcast
6:36 AM 42.8 °F 38.0 °F 30.2 °F 61% 29.85 in 10.0 mi ENE 8.1 mph - N/A   Overcast
6:56 AM 42.8 °F 37.0 °F 32.0 °F 66% 29.85 in 10.0 mi ENE 10.4 mph - N/A   Overcast
7:16 AM 42.8 °F 37.5 °F 32.0 °F 66% 29.85 in 10.0 mi ENE 9.2 mph - N/A   Overcast
7:36 AM 41.0 °F 35.8 °F 30.2 °F 65% 29.86 in 10.0 mi ENE 8.1 mph - N/A   Overcast
7:56 AM 42.8 °F 37.0 °F 30.2 °F 61% 29.85 in 10.0 mi ENE 10.4 mph - N/A   Overcast
8:16 AM 42.8 °F 37.0 °F 30.2 °F 61% 29.86 in 10.0 mi ENE 10.4 mph - N/A   Overcast
8:36 AM 42.8 °F 36.6 °F 30.2 °F 61% 29.87 in 10.0 mi ENE 11.5 mph - N/A   Overcast
8:56 AM 42.8 °F 37.5 °F 30.2 °F 61% 29.86 in 10.0 mi ENE 9.2 mph - N/A   Overcast
9:16 AM 42.8 °F 36.6 °F 30.2 °F 61% 29.86 in 10.0 mi ENE 11.5 mph - N/A   Overcast
9:36 AM 42.8 °F 35.8 °F 30.2 °F 61% 29.85 in 10.0 mi ENE 13.8 mph - N/A   Overcast
9:56 AM 42.8 °F 38.6 °F 30.2 °F 61% 29.84 in 10.0 mi ENE 6.9 mph - N/A   Overcast
10:16 AM 42.8 °F 36.2 °F 30.2 °F 61% 29.84 in 10.0 mi ENE 12.7 mph 17.3 mph N/A   Overcast
10:36 AM 42.8 °F 36.6 °F 30.2 °F 61% 29.84 in 10.0 mi ENE 11.5 mph 17.3 mph N/A   Overcast
10:56 AM 42.8 °F 37.5 °F 30.2 °F 61% 29.84 in 10.0 mi ENE 9.2 mph - N/A   Scattered Clouds
11:16 AM 42.8 °F 38.6 °F 30.2 °F 61% 29.84 in 10.0 mi East 6.9 mph - N/A   Mostly Cloudy
11:36 AM 42.8 °F 38.0 °F 30.2 °F 61% 29.84 in 10.0 mi ENE 8.1 mph - N/A   Overcast
11:56 AM 41.0 °F 36.4 °F 30.2 °F 65% 29.84 in 10.0 mi ENE 6.9 mph - N/A   Overcast
12:16 PM 41.0 °F 36.4 °F 32.0 °F 70% 29.84 in 10.0 mi ENE 6.9 mph - N/A   Overcast
12:36 PM 39.2 °F 33.6 °F 33.8 °F 81% 29.83 in 10.0 mi ENE 8.1 mph - 0.02 in   Overcast
12:56 PM 39.2 °F 32.5 °F 33.8 °F 81% 29.83 in 10.0 mi ENE 10.4 mph - 0.04 in   Overcast
1:16 PM 41.0 °F 35.8 °F 33.8 °F 76% 29.82 in 10.0 mi ENE 8.1 mph - 0.01 in   Overcast
1:36 PM 39.2 °F 33.0 °F 33.8 °F 81% 29.80 in 10.0 mi ENE 9.2 mph - 0.02 in   Overcast
1:56 PM 39.2 °F 33.0 °F 33.8 °F 81% 29.79 in 10.0 mi ENE 9.2 mph 17.3 mph 0.03 in   Overcast
2:16 PM 39.2 °F 33.0 °F 33.8 °F 81% 29.78 in 10.0 mi ENE 9.2 mph - 0.01 in   Overcast
2:36 PM 39.2 °F 33.0 °F 33.8 °F 81% 29.77 in 10.0 mi East 9.2 mph - 0.01 in   Overcast
2:56 PM 39.2 °F 33.6 °F 33.8 °F 81% 29.77 in 10.0 mi East 8.1 mph - 0.02 in   Overcast
3:16 PM 39.2 °F 33.6 °F 33.8 °F 81% 29.76 in 10.0 mi ENE 8.1 mph - 0.01 in   Overcast
3:36 PM 37.4 °F 30.3 °F 33.8 °F 87% 29.74 in 10.0 mi ENE 10.4 mph 18.4 mph 0.02 in   Overcast
3:56 PM 37.4 °F 29.8 °F 33.8 °F 87% 29.73 in 10.0 mi ENE 11.5 mph 16.1 mph 0.02 in   Overcast
4:16 PM 39.2 °F 32.5 °F 33.8 °F 81% 29.72 in 10.0 mi East 10.4 mph 20.7 mph 0.01 in   Overcast
4:36 PM 39.2 °F 31.6 °F 33.8 °F 81% 29.70 in 10.0 mi ENE 12.7 mph 23.0 mph 0.01 in   Overcast
4:56 PM 39.2 °F 31.2 °F 33.8 °F 81% 29.69 in 10.0 mi ENE 13.8 mph 21.9 mph 0.02 in   Overcast
5:16 PM 39.2 °F 31.6 °F 33.8 °F 81% 29.69 in 10.0 mi East 12.7 mph 19.6 mph 0.01 in   Overcast
5:36 PM 39.2 °F 32.5 °F 33.8 °F 81% 29.68 in 10.0 mi East 10.4 mph 18.4 mph 0.03 in   Overcast
5:56 PM 39.2 °F 31.6 °F 33.8 °F 81% 29.68 in 10.0 mi ENE 12.7 mph 19.6 mph 0.04 in   Overcast
6:16 PM 39.2 °F 32.0 °F 35.6 °F 87% 29.67 in 10.0 mi ENE 11.5 mph 20.7 mph 0.01 in   Overcast
6:36 PM 39.2 °F 33.6 °F 35.6 °F 87% 29.67 in 10.0 mi East 8.1 mph 16.1 mph 0.03 in   Overcast
6:56 PM 39.2 °F 33.0 °F 35.6 °F 87% 29.68 in 10.0 mi ENE 9.2 mph - 0.06 in   Overcast
7:16 PM 39.2 °F 34.2 °F 35.6 °F 87% 29.67 in 10.0 mi East 6.9 mph 16.1 mph 0.02 in   Overcast
7:36 PM 39.2 °F 32.5 °F 35.6 °F 87% 29.67 in 10.0 mi East 10.4 mph - 0.04 in   Overcast
7:56 PM 39.2 °F 32.5 °F 35.6 °F 87% 29.67 in 10.0 mi ENE 10.4 mph 16.1 mph 0.05 in   Overcast
8:36 PM 39.2 °F 32.0 °F 35.6 °F 87% 29.67 in 10.0 mi ENE 11.5 mph 17.3 mph 0.02 in   Overcast
8:56 PM 39.2 °F 33.6 °F 35.6 °F 87% 29.66 in 10.0 mi ENE 8.1 mph - 0.03 in   Overcast
9:16 PM 39.2 °F 32.5 °F 35.6 °F 87% 29.65 in 10.0 mi ENE 10.4 mph - 0.01 in   Mostly Cloudy
9:36 PM 39.2 °F 32.0 °F 35.6 °F 87% 29.65 in 10.0 mi ENE 11.5 mph - 0.01 in   Overcast
9:56 PM 39.2 °F 33.6 °F 35.6 °F 87% 29.65 in 10.0 mi ENE 8.1 mph - 0.02 in   Overcast
10:16 PM 39.2 °F 32.5 °F 35.6 °F 87% 29.65 in 10.0 mi ENE 10.4 mph - 0.01 in   Mostly Cloudy
10:36 PM 39.2 °F 31.2 °F 35.6 °F 87% 29.65 in 10.0 mi ENE 13.8 mph 19.6 mph 0.01 in   Overcast
10:56 PM 39.2 °F 30.8 °F 33.8 °F 81% 29.65 in 10.0 mi ENE 15.0 mph - 0.01 in   Mostly Cloudy
11:16 PM 39.2 °F 30.5 °F 35.6 °F 87% 29.65 in 10.0 mi ENE 16.1 mph 21.9 mph 0.01 in   Mostly Cloudy
11:36 PM 39.2 °F 32.0 °F 35.6 °F 87% 29.65 in 10.0 mi ENE 11.5 mph 20.7 mph 0.01 in   Overcast
11:56 PM 39.2 °F 32.5 °F 35.6 °F 87% 29.63 in 10.0 mi ENE 10.4 mph - 0.01 in   Overcast